星链-33938 (STARLINK-33938)

导读 | 豆包AI

STARLINK-33938是美国星链星座中的一颗卫星,于2025年5月2日发射升空,归属SpaceX公司的星链互联网卫星项目。该卫星是星链低轨卫星互联网组网建设的组成部分,旨在为全球提供高速低延迟的宽带互联网服务,目前已加入星链星座运行,支撑项目全球覆盖的组网目标推进。

基本信息
目录编号:
63778
目录名称:
STARLINK-33938
国际标识:
2025-091D
轨道中心:
EARTH
卫星名称:
星链-33938
卫星全名:
星链-33938 (STARLINK-33938)
卫星状态:
在轨 (已飞行316 天)
发射日期:
2025-05-02 UTC
国别 :
美国 (US)
星等 :
--
轨道信息
数据来源 国际轨道数据
星历时间: 2026-03-14T05:20:16+0800
23小时前
查看轨道信息
半长轴: 6861.143km
偏心率: 0.0001366
轨道倾角: 43.002°
近地点辐角 257.915°
升交点赤经 28.884°
平近点角 102.155°
近地点: 482.068km
远地点: 483.944km
周期: 94.266分钟
每日圈数: 15.275946
详细信息
固有亮度:
5
最大亮度:
2.5
卫星平台:
Starlink V1.0
覆盖范围:
全球
运营商:
太空探索技术公司
运营商所在国:
美国
制造商(研发单位):
太空探索技术公司
制造商所在国:
美国
使用方式:
暂无
卫星简介
Starlink 计划是 SpaceX 推出的全球卫星互联网项目,通过发射低轨道卫星,为全球尤其是偏远地区提供高速、低延迟的互联网服务。自 2019 年起,Starlink 已部署数千颗卫星,旨在缩小全球数字鸿沟,推动互联网普及。该项目还为军事、航空等行业提供通信支持,带来广泛经济效益。
2D轨道图
3D轨道图
轨道高度分析图
轨道倾角分析图
轨道综合分析图
查看轨道综合分析图